FW1746 Weather Reports


Display with metric or nautical units.
time (UTC)temp
F
wind
direction
speed
MPH
gust
MPH
rain 1hr
in
rain 24hr
in
rain mn
in
humidity
%
barometer
mb
20260505194553 47 229 1.0 5.0 0.00 0.00 0.00 48 1012.5
20260505193039 47 231 1.0 10.0 0.00 0.00 0.00 46 1012.5
20260505191547 48 200 2.0 9.0 0.00 0.00 0.00 45 1012.3
20260505190038 49 233 0.0 8.0 0.00 0.00 0.00 44 1012.2
20260505184536 50 221 4.0 12.0 0.00 0.00 0.00 43 1012.0
20260505183028 51 236 9.0 11.0 0.00 0.00 0.00 41 1011.9
20260505181526 51 259 6.0 14.0 0.00 0.00 0.00 42 1011.9
20260505180032 52 246 0.0 8.0 0.00 0.00 0.00 42 1011.7
20260505174522 52 181 2.0 10.0 0.00 0.00 0.00 41 1011.5
20260505173025 53 247 7.0 13.0 0.00 0.00 0.00 39 1011.5
20260505171521 54 211 2.0 11.0 0.00 0.00 0.00 42 1011.4
20260505170014 54 246 2.0 10.0 0.00 0.00 0.00 43 1011.3
20260505164512 54 215 1.0 13.0 0.00 0.00 0.00 50 1011.3
20260505163015 54 207 5.0 12.0 0.00 0.00 0.00 53 1011.2
20260505161510 54 182 5.0 11.0 0.00 0.00 0.00 52 1011.1
20260505153012 56 184 4.0 13.0 0.00 0.00 0.00 49 1011.1
20260505151514 56 200 5.0 14.0 0.00 0.00 0.00 54 1011.2
20260505130105 55 192 8.0 15.0 0.00 0.00 0.00 51 1011.9
20260505124600 54 185 7.0 14.0 0.00 0.00 0.00 53 1011.9
20260505123100 53 190 6.0 11.0 0.00 0.00 0.00 53 1011.9
20260505121622 53 202 5.0 15.0 0.00 0.00 0.00 52 1012.0
20260505120042 53 213 5.0 14.0 0.00 0.00 0.00 55 1012.1
20260505114541 52 186 8.0 14.0 0.00 0.00 0.00 56 1012.2
20260505113041 52 165 5.0 12.0 0.00 0.00 0.00 57 1012.3
20260505111540 52 154 8.0 13.0 0.00 0.00 0.00 57 1012.2
20260505101540 49 148 5.0 10.0 0.00 0.00 0.00 62 1012.4
20260505100046 49 150 4.0 10.0 0.00 0.00 0.00 61 1012.4
20260505094542 49 158 5.0 10.0 0.00 0.00 0.00 59 1012.5
20260505093037 49 150 7.0 15.0 0.00 0.00 0.00 60 1012.7
20260505091549 50 160 5.0 10.0 0.00 0.00 0.00 59 1012.5
20260505090039 50 141 3.0 7.0 0.00 0.00 0.00 55 1012.5
20260505084534 50 140 1.0 7.0 0.00 0.00 0.00 48 1012.4
20260505083045 49 127 3.0 7.0 0.00 0.00 0.00 49 1012.4
20260505081539 47 275 0.0 3.0 0.00 0.00 0.00 52 1012.6
20260505080046 46 251 2.0 11.0 0.00 0.00 0.00 51 1012.6
20260505074540 45 234 0.0 7.0 0.00 0.00 0.00 53 1012.6
20260505073045 45 254 3.0 9.0 0.00 0.00 0.00 54 1012.6
20260505071541 44 258 5.0 14.0 0.00 0.00 0.00 55 1012.7
20260505070036 43 279 4.0 9.0 0.00 0.00 0.00 58 1012.7
20260505064533 42 250 3.0 9.0 0.00 0.00 0.00 60 1012.7
20260505063044 41 243 2.0 9.0 0.00 0.00 0.00 62 1012.6
20260505061535 40 212 2.0 8.0 0.00 0.00 0.00 66 1012.7
20260505060032 39 187 0.0 1.0 0.00 0.00 0.00 71 1012.5
20260505054542 38 183 0.0 2.0 0.00 0.00 0.00 72 1012.7
20260505053029 38 188 0.0 2.0 0.00 0.00 0.00 73 1012.6
20260505051538 37 253 0.0 5.0 0.00 0.00 0.00 75 1012.6
20260505041543 34 195 0.0 2.0 0.00 0.00 0.00 87 1012.6
20260505040027 34 179 1.0 4.0 0.00 0.00 0.00 86 1012.5
20260505034525 34 200 0.0 2.0 0.00 0.00 0.00 86 1012.3
20260505033025 34 196 0.0 2.0 0.00 0.00 0.00 87 1012.3
20260505031529 35 222 0.0 2.0 0.00 0.00 0.00 86 1012.2
20260505030022 35 224 0.0 2.0 0.00 0.00 0.00 86 1012.2
20260505024520 35 207 0.0 3.0 0.00 0.00 0.00 85 1012.2
20260505023019 36 190 1.0 3.0 0.00 0.00 0.00 82 1012.2
20260505021518 37 175 1.0 2.0 0.00 0.00 0.00 80 1012.3
20260505020013 37 194 0.0 2.0 0.00 0.00 0.00 79 1012.2
20260505014516 38 165 0.0 2.0 0.00 0.00 0.00 77 1012.2
20260505013010 38 255 0.0 2.0 0.00 0.00 0.00 77 1012.1
20260505011509 39 254 1.0 2.0 0.00 0.00 0.00 78 1012.0
20260505010016 39 252 0.0 2.0 0.00 0.00 0.00 77 1011.8
20260505004512 40 192 0.0 6.0 0.00 0.00 0.00 78 1011.7
20260505003009 40 224 0.0 3.0 0.00 0.00 0.00 81 1011.5
20260505001508 40 210 0.0 3.0 0.00 0.00 0.00 83 1011.4
20260505000014 41 208 0.0 2.0 0.00 0.00 0.00 85 1011.3
20260504234510 41 207 0.0 3.0 0.00 0.00 0.00 87 1011.2
20260504233007 41 228 0.0 4.0 0.00 0.00 0.00 89 1011.2
20260504231504 41 211 0.0 3.0 0.00 0.00 0.00 87 1010.9
20260504224559 43 200 0.0 2.0 0.00 0.00 0.00 85 1010.9
20260504223042 43 196 0.0 2.0 0.00 0.00 0.00 84 1010.8
20260504221540 44 182 0.0 2.0 0.00 0.00 0.00 83 1010.8
20260504214546 45 163 1.0 6.0 0.00 0.00 0.00 82 1010.6
20260504213040 46 182 0.0 4.0 0.00 0.00 0.00 81 1010.6
20260504211538 46 209 2.0 7.0 0.00 0.00 0.00 81 1010.4
20260504204529 47 202 1.0 6.0 0.00 0.00 0.00 82 1010.2
20260504203026 47 210 3.0 9.0 0.00 0.00 0.00 82 1010.1
20260504201525 48 233 2.0 11.0 0.00 0.00 0.00 82 1010.1